Roros Lufthavn, Norway

6:52 PM CET on December 05, 2019 (GMT +0100)
Roros

Weather History for ENRO - October, 2019

Change the Weather History Date:

Thursday, October 10, 2019

  Actual Average Record
Temperature  
Mean Temperature 32 °F -  
Max Temperature 41 °F 41 °F 55 °F (2018)
Min Temperature 24 °F 32 °F 19 °F (2002)
Degree Days  
Heating Degree Days 32    
Moisture  
Dew Point 30 °F    
Average Humidity 94    
Maximum Humidity 100    
Minimum Humidity 76    
Precipitation  
Precipitation 0.00 in - - ()
Sea Level Pressure  
Sea Level Pressure 29.35 in    
Wind  
Wind Speed 2 mph ()    
Max Wind Speed 7 mph    
Max Gust Speed -    
Visibility 6.1 miles    
Events      
Averages and records for this station are not official NWS values.
T = Trace of Precipitation, MM = Missing Value Source: Averaged Metar Reports

Daily Weather History Graph

Daily Weather History Graph

Search for Another Location

Airport or City:

Astronomy

Oct. 10, 2019 Rise Set
Actual Time 7:45 AM CEST 6:16 PM CEST
Civil Twilight 6:59 AM CEST 7:01 PM CEST
Nautical Twilight 6:07 AM CEST 7:54 PM CEST
Astronomical Twilight 5:13 AM CEST 8:47 PM CEST
Moon 6:28 PM CEST (10/10) 2:39 AM CEST (10/10)
Length of Visible Light 12h 02m
Length of Day
10h 31m
Waxing Gibbous, 89% of the Moon is Illuminated
Oct 10
Waxing Gibbous
Oct 13
Full
Oct 21
Last Quarter
Oct 28
New
Nov 4
First Quarter

Hourly Weather History & Observations

Time (CEST) Temp. Windchill Dew Point Humidity Pressure Visibility Wind Dir Wind Speed Gust Speed Precip Events Conditions
12:20 AM 30.2 °F - 30.2 °F 100% 29.36 in 6.2 mi Variable 1.2 mph - N/A   Overcast
12:50 AM 30.2 °F - 30.2 °F 100% 29.36 in 6.2 mi Variable 1.2 mph - N/A   Overcast
1:20 AM 30.2 °F - 30.2 °F 100% 29.36 in 6.2 mi Variable 1.2 mph - N/A   Overcast
1:50 AM 30.2 °F - 30.2 °F 100% 29.36 in 6.2 mi Variable 2.3 mph - N/A   Overcast
2:20 AM 28.4 °F - 28.4 °F 100% 29.36 in 6.2 mi Variable 2.3 mph - N/A   Mostly Cloudy
2:50 AM 28.4 °F - 28.4 °F 100% 29.36 in 6.2 mi Variable 2.3 mph - N/A   Mostly Cloudy
3:20 AM 26.6 °F - 26.6 °F 100% 29.36 in 6.2 mi Variable 2.3 mph - N/A   Overcast
3:50 AM 26.6 °F - 26.6 °F 100% 29.36 in 6.2 mi Variable 1.2 mph - N/A   Overcast
4:20 AM 28.4 °F - 28.4 °F 100% 29.36 in 6.2 mi Variable 1.2 mph - N/A   Overcast
4:50 AM 28.4 °F - 28.4 °F 100% 29.36 in 6.2 mi Variable 1.2 mph - N/A   Overcast
5:20 AM 28.4 °F - 28.4 °F 100% 29.36 in 6.2 mi Variable 1.2 mph - N/A   Overcast
5:50 AM 30.2 °F - 28.4 °F 93% 29.36 in 6.2 mi Variable 1.2 mph - N/A   Overcast
6:20 AM 28.4 °F - 28.4 °F 100% 29.36 in 6.2 mi Variable 2.3 mph - N/A   Mostly Cloudy
6:50 AM 30.2 °F - 28.4 °F 93% 29.36 in 6.2 mi Variable 1.2 mph - N/A   Mostly Cloudy
7:20 AM 30.2 °F - 30.2 °F 100% 29.36 in 6.2 mi Calm Calm - N/A   Mostly Cloudy
8:20 AM 30.2 °F 26.7 °F 30.2 °F 100% 29.36 in 6.2 mi ESE 3.5 mph - N/A   Mostly Cloudy
8:50 AM 32.0 °F - 32.0 °F 100% 29.36 in 6.2 mi Variable 2.3 mph - N/A   Mostly Cloudy
9:20 AM 32.0 °F - 32.0 °F 100% 29.36 in 6.2 mi Variable 1.2 mph - N/A   Mostly Cloudy
9:50 AM 33.8 °F - 33.8 °F 100% 29.36 in 6.2 mi Variable 2.3 mph - N/A   Mostly Cloudy
10:20 AM 33.8 °F - 33.8 °F 100% 29.36 in 6.2 mi Variable 1.2 mph - N/A   Mostly Cloudy
10:50 AM 35.6 °F - 33.8 °F 93% 29.36 in 6.2 mi Variable 2.3 mph - N/A   Mostly Cloudy
11:20 AM 37.4 °F 34.9 °F 33.8 °F 87% 29.36 in 6.2 mi SW 3.5 mph - N/A   Mostly Cloudy
11:50 AM 37.4 °F 32.8 °F 33.8 °F 87% 29.36 in 6.2 mi SW 5.8 mph - N/A   Mostly Cloudy
12:20 PM 39.2 °F 35.9 °F 33.8 °F 81% 29.36 in 6.2 mi SSW 4.6 mph - N/A   Mostly Cloudy
1:20 PM 39.2 °F 34.2 °F 33.8 °F 81% 29.36 in 6.2 mi WSW 6.9 mph - N/A   Mostly Cloudy
1:50 PM 39.2 °F 35.9 °F 33.8 °F 81% 29.36 in 6.2 mi SW 4.6 mph - N/A   Scattered Clouds
2:20 PM 41.0 °F 36.4 °F 35.6 °F 81% 29.36 in 6.2 mi WSW 6.9 mph - N/A   Scattered Clouds
2:50 PM 39.2 °F 34.2 °F 33.8 °F 81% 29.36 in 6.2 mi WSW 6.9 mph - N/A   Scattered Clouds
3:20 PM 41.0 °F 36.4 °F 35.6 °F 81% 29.36 in 6.2 mi WSW 6.9 mph - N/A   Partly Cloudy
3:50 PM 39.2 °F 35.0 °F 33.8 °F 81% 29.36 in 6.2 mi WSW 5.8 mph - N/A   Scattered Clouds
4:20 PM 41.0 °F 37.1 °F 35.6 °F 81% 29.36 in 6.2 mi SW 5.8 mph - N/A   Partly Cloudy
4:50 PM 41.0 °F 37.1 °F 33.8 °F 76% 29.33 in 6.2 mi SW 5.8 mph - N/A   Partly Cloudy
5:50 PM 35.6 °F 31.7 °F 32.0 °F 87% 29.36 in 6.2 mi Variable 4.6 mph - N/A   Partly Cloudy
6:20 PM 33.8 °F - 32.0 °F 93% 29.33 in 6.2 mi Variable 1.2 mph - N/A   Partly Cloudy
6:50 PM 32.0 °F - 32.0 °F 100% 29.33 in 6.2 mi Variable 1.2 mph - N/A   Partly Cloudy
7:20 PM 30.2 °F - 30.2 °F 100% 29.33 in 6.2 mi Variable 2.3 mph - N/A   Unknown
7:50 PM 28.4 °F - 28.4 °F 100% 29.33 in 6.2 mi Variable 1.2 mph - N/A   Partly Cloudy
8:20 PM 28.4 °F - 28.4 °F 100% 29.33 in - Variable 1.2 mph - N/A   Clear
8:50 PM 26.6 °F - 26.6 °F 100% 29.33 in - Variable 1.2 mph - N/A   Clear
9:20 PM 26.6 °F - 26.6 °F 100% 29.33 in - Variable 1.2 mph - N/A   Clear
9:50 PM 26.6 °F - 26.6 °F 100% 29.33 in 1.5 mi Variable 1.2 mph - N/A   Partly Cloudy
10:20 PM 24.8 °F - 24.8 °F 100% 29.33 in - Variable 2.3 mph - N/A   Partly Cloudy
11:20 PM 24.8 °F - 24.8 °F 100% 29.33 in 6.2 mi Variable 2.3 mph - N/A   Partly Cloudy
11:50 PM 24.8 °F - 24.8 °F 100% 29.33 in 6.2 mi Variable 2.3 mph - N/A   Partly Cloudy